WetterOnline ( https://www.wetteronline.de )

Wetter aktuell Bietigheim-Bissingen

Aktuelles Wetter: Mühlacker (245m)

6-stündlich | Neueste Meldungen
Ortszeit Temperatur Wetter
Do, 08.12. 19:00 1.5° C bedeckt
Do, 08.12. 13:00 3.3° C bedeckt
Do, 08.12. 7:00 -3.3° C bedeckt
Do, 08.12. 1:00 -1.6° C leicht bewölkt
Mi, 07.12. 19:00 2.7° C bedeckt
Mi, 07.12. 13:00 4.0° C bewölkt
Mi, 07.12. 7:00 2.2° C bedeckt
Mi, 07.12. 1:00 2.8° C bedeckt
Ortszeit Temperatur Wetter
Do, 08.12. 20:30 0.8° C bedeckt
Do, 08.12. 20:20 0.8° C bedeckt
Do, 08.12. 20:10 0.8° C bedeckt
Do, 08.12. 20:00 1.0° C bedeckt
Do, 08.12. 19:50 1.0° C bedeckt
Do, 08.12. 19:40 1.1° C bedeckt
Do, 08.12. 19:30 1.2° C Sprühregen
Do, 08.12. 19:00 1.5° C bedeckt
Do, 08.12. 18:30 1.7° C bedeckt
Do, 08.12. 18:00 2.0° C bedeckt
Do, 08.12. 17:30 2.3° C Sprühregen
Ortszeit Relative Feuchte Sichtweite
Do, 08.12. 19:00 93% 28 km
Do, 08.12. 13:00 79% 35 km
Do, 08.12. 7:00 94% 12 km
Do, 08.12. 1:00 94% 8 km
Mi, 07.12. 19:00 87% 21 km
Mi, 07.12. 13:00 78% 35 km
Mi, 07.12. 7:00 89% 24 km
Mi, 07.12. 1:00 90% 24 km
Ortszeit Relative Feuchte Sichtweite
Do, 08.12. 20:30 92% 30 km
Do, 08.12. 20:20 92% -
Do, 08.12. 20:10 91% -
Do, 08.12. 20:00 91% 25 km
Do, 08.12. 19:50 91% -
Do, 08.12. 19:40 91% -
Do, 08.12. 19:30 91% 26 km
Do, 08.12. 19:00 93% 28 km
Do, 08.12. 18:30 88% 30 km
Do, 08.12. 18:00 88% 30 km
Do, 08.12. 17:30 81% 25 km
Ortszeit Niederschlagsmenge Niederschlagsart
Do, 08.12. 19:00 0.1 l/m2 in 12 Std. Regen
Do, 08.12. 13:00 0.0 l/m2 in 6 Std. -
Do, 08.12. 7:00 0.0 l/m2 in 12 Std. -
Do, 08.12. 1:00 0.0 l/m2 in 6 Std. -
Mi, 07.12. 19:00 0.1 l/m2 in 12 Std. Regen
Mi, 07.12. 13:00 0.1 l/m2 in 6 Std. Regen
Mi, 07.12. 7:00 0.1 l/m2 in 12 Std. Regen
Mi, 07.12. 1:00 0.1 l/m2 in 6 Std. Sprühregen
Ortszeit Niederschlagsmenge Niederschlagsart
Do, 08.12. 20:30 0.0 l/m2 in 1 Std. -
Do, 08.12. 20:20 keine Meldung -
Do, 08.12. 20:10 keine Meldung -
Do, 08.12. 20:00 <0.05 l/m2 in 1 Std. Schnee, Regen
Do, 08.12. 19:50 keine Meldung -
Do, 08.12. 19:40 keine Meldung -
Do, 08.12. 19:30 <0.05 l/m2 in 1 Std. -
Do, 08.12. 19:00 <0.05 l/m2 in 1 Std. Regen
Do, 08.12. 18:30 0.0 l/m2 in 1 Std. -
Do, 08.12. 18:00 <0.05 l/m2 in 1 Std. Regen
Do, 08.12. 17:30 <0.05 l/m2 in 1 Std. -
Ortszeit Stärke Spitze Richtung
km/h Bft. km/h Grad Sektor
Do, 08.12. 19:00 4 1 11 10° N
Do, 08.12. 13:00 7 2 14 310° NW
Do, 08.12. 7:00 0 0 7 - -
Do, 08.12. 1:00 2 1 15 60° NO
Mi, 07.12. 19:00 6 1 24 250° W
Mi, 07.12. 13:00 17 3 28 260° W
Mi, 07.12. 7:00 7 2 14 260° W
Mi, 07.12. 1:00 4 1 11 300° NW
Ortszeit Stärke Spitze Richtung
km/h Bft. km/h Grad Sektor
Do, 08.12. 20:30 4 1 7 120° SO
Do, 08.12. 20:20 4 1 - 120° SO
Do, 08.12. 20:10 4 1 - 120° SO
Do, 08.12. 20:00 4 1 7 100° O
Do, 08.12. 19:50 4 1 - 100° O
Do, 08.12. 19:40 4 1 - 80° O
Do, 08.12. 19:30 2 1 4 120° SO
Do, 08.12. 19:00 4 1 4 10° N
Do, 08.12. 18:30 0 0 4 - -
Do, 08.12. 18:00 0 0 7 - -
Do, 08.12. 17:30 4 1 7 260° W
Ortszeit Untergrenze Bedeckung Gattung
total tief tief mittel hoch
Do, 08.12. 19:00 960 m 8/8 8/8 - - -
Do, 08.12. 13:00 720 m 8/8 8/8 - - -
Do, 08.12. 7:00 1500 m 8/8 8/8 - - -
Do, 08.12. 1:00 390 m 3/8 3/8 - - -
Mi, 07.12. 19:00 1020 m 8/8 8/8 - - -
Mi, 07.12. 13:00 480 m 7/8 7/8 - - -
Mi, 07.12. 7:00 1800 m 8/8 8/8 - - -
Mi, 07.12. 1:00 540 m 8/8 8/8 - - -
Ortszeit Bedeckungsgrad in Achtel und Wolkenuntergrenze
Do, 08.12. 20:30 3(1170m) 8(1500m)
Do, 08.12. 20:20 3(1170m) 8(1500m)
Do, 08.12. 20:10 8
Do, 08.12. 20:00 8(1080m) 8(1500m)
Do, 08.12. 19:50 8(1080m) 8(1500m)
Do, 08.12. 19:40 8
Do, 08.12. 19:30 8(1020m)
Do, 08.12. 19:00 7(960m) 8(1230m)
Do, 08.12. 18:30 7(780m) 8(1080m) 8(1500m)
Do, 08.12. 18:00 7(720m) 8(960m)
Do, 08.12. 17:30 5(870m) 7(1110m) 8(1500m)
Ortszeit Luftdruck NN (hPa) Tendenz (hPa in 3 Std.)
Do, 08.12. 19:00 1010 - 0,5
Do, 08.12. 13:00 1011 - 1,6
Do, 08.12. 7:00 1013 - 1,1
Do, 08.12. 1:00 1015 - 0,9
Mi, 07.12. 19:00 1016 - 0,9
Mi, 07.12. 13:00 1018 - 0,8
Mi, 07.12. 7:00 1019 - 0,4
Mi, 07.12. 1:00 1019 0,0
Ortszeit Luftdruck NN (hPa) Tendenz (hPa in 3 Std.)
Do, 08.12. 20:30 1009 - 0,5
Do, 08.12. 20:20 1009 keine Meldung
Do, 08.12. 20:10 1009 keine Meldung
Do, 08.12. 20:00 1010 - 0,6
Do, 08.12. 19:50 1010 keine Meldung
Do, 08.12. 19:40 1010 keine Meldung
Do, 08.12. 19:30 1010 - 0,5
Do, 08.12. 19:00 1010 - 0,5
Do, 08.12. 18:30 1010 - 0,4
Do, 08.12. 18:00 1010 - 0,3
Do, 08.12. 17:30 1010 - 0,3
Ortszeit Schneehöhe (cm)
Do, 08.12. 19:00 0
Do, 08.12. 13:00 0
Do, 08.12. 7:00 0
Do, 08.12. 1:00 0
Mi, 07.12. 19:00 0
Mi, 07.12. 13:00 0
Mi, 07.12. 7:00 0
Mi, 07.12. 1:00 0
Ortszeit Schneehöhe (cm)
Do, 08.12. 20:30 0
Do, 08.12. 20:20 0
Do, 08.12. 20:10 0
Do, 08.12. 20:00 0
Do, 08.12. 19:50 0
Do, 08.12. 19:40 0
Do, 08.12. 19:30 0
Do, 08.12. 19:00 0
Do, 08.12. 18:30 0
Do, 08.12. 18:00 0
Do, 08.12. 17:30 0
Link zu dieser Seite / Seite empfehlen

Das Wetter in ...